Regional Weather Roundup
Issued by NWS Cleveland, OH

Home | Current Version | Previous Version | Text Only | Print | Product List | Glossary Off
Versions: 1 2 3 4 5 6 7 8 9 10 11 12 13 14 15 16 17 18 19 20 21 22 23 24 25 26 27 28 29 30 31 32 33 34 35 36 37 38 39 40 41 42 43 44 45 46 47 48 49 50

000
ASUS41 KCLE 291510
RWRCLE
OHIO REGIONAL WEATHER ROUNDUP
NATIONAL WEATHER SERVICE WILMINGTON, OH
1100 AM EDT MON MAY 29 2017

NOTE: "FAIR" INDICATES FEW OR NO CLOUDS BELOW 12,000 FEET WITH NO
SIGNIFICANT WEATHER AND/OR OBSTRUCTIONS TO VISIBILITY.

OHZ001>008-015>018-024>027-034-035-043-044-291600-
   NORTHWEST OHIO

CITY           SKY/WX    TMP DP  RH WIND       PRES   REMARKS
DEFIANCE       FAIR      70  57  63 SW14G20   29.83F
FINDLAY        FAIR      74  56  53 SW15      29.85S
TOLEDO EXPRESS FAIR      71  57  61 SW10      29.82F
TOLEDO EXEC    FAIR      72  59  63 SW13      29.84S
LIMA           FAIR      73  57  57 SW15      29.87S
$$

OHZ009>014-019>023-028>033-038-089-291600-
   NORTHEAST OHIO

CITY           SKY/WX    TMP DP  RH WIND       PRES   REMARKS
CLE-HOPKINS    FAIR      74  57  55 SW8       29.87S
CLE-LAKEFRONT  FAIR      72  56  57 W8        29.84F
CUY CO. ARPT   SUNNY     73  54  49 W14       29.87R
LORAIN-ELYRIA  FAIR      71  51  49 W7        29.86F
ASHTABULA      FAIR      70  58  65 W15G21    29.86S
AKRON-CANTON   FAIR      72  54  53 W8        29.89S
WOOSTER        FAIR      71  55  56 W8        29.89S
MANSFIELD      FAIR      73  54  51 SW12      29.89S
YOUNGSTOWN     FAIR      70  56  61 W12G20    29.87S
$$

OHZ042-051>053-060>062-070>072-077>081-291600-
  SOUTHWEST OHIO

CITY           SKY/WX    TMP DP  RH WIND       PRES   REMARKS
CINC-COVINGTON FAIR      72  63  73 SW8       29.94S
CINC-LUNKEN    FAIR      74  65  73 SW7       29.94S
HAMILTON       FAIR      74  65  73 VRB6      29.94S
DAYTON         FAIR      73  59  61 SW14      29.92S
WRIGHT-PAT AFB FAIR      73  62  69 SW12      29.91S
DAYTON GENERAL FAIR      72  61  68 SW10      29.92S
WILMINGTON     FAIR      73  62  68 SW10      29.93S
$$

OHZ036-037-039>041-045>050-054>059-063>069-073>076-082>088-291600-
  CENTRAL AND SOUTHEAST OHIO

CITY           SKY/WX    TMP DP  RH WIND       PRES   REMARKS
COLUMBUS       FAIR      75  55  49 SW10      29.90R
OSU AIRPORT    FAIR      75  58  55 W13G18    29.90S
BOLTON FIELD   SUNNY     75  61  60 SW9       29.92R
RICKENBACK AFB FAIR      74  60  61 W7        29.91S
NEWARK         FAIR      74  57  55 W8        29.90S
MARION         FAIR      73  57  57 SW13      29.89R
LANCASTER      FAIR      76  62  62 SW12      29.92S
ZANESVILLE     FAIR      74  60  61 W7        29.91S
NEW PHILLY     FAIR      73  56  54 SW8       29.91R
$$




USA.gov is the U.S. government's official web portal to all federal, state and local government web resources and services.